ECMWFFLT1_700_temp_057.txt.gz
Temp
16 16 16 16 15 15 15 15 14 14 14 13 13 13 13 13 13 13 13 13 13 13 12 12 12 12 12 12 12 12 11 11 11 11 11 11 11 11 11 11 11 11 11 11 11 11 10 11 11 11 11 11 11 11 11 11 11 11 11 11 11 11 11
16 16 16 16 16 15 15 15 14 14 14 13 13 13 13 13 14 14 14 14 13 13 13 12 12 12 12 12 12 12 11 11 11 11 11 11 11 11 11 11 11 11 11 11 11 11 11 11 11 11 11 11 11 11 11 11 11 11 11 11 11 11 11
16 17 17 16 16 16 15 15 14 14 14 14 14 13 13 14 14 14 14 14 13 13 13 13 13 12 12 12 12 12 11 11 11 11 12 12 11 11 11 11 11 11 11 11 11 11 11 11 11 11 11 11 11 11 11 11 11 11 11 11 11 11 11
17 17 17 17 16 16 15 15 15 14 14 14 14 14 14 14 14 14 14 14 14 13 13 13 13 13 12 12 12 12 12 11 11 12 12 12 12 12 11 11 11 12 12 11 11 11 11 11 11 11 11 11 11 11 11 11 11 11 11 11 11 11 11
17 17 17 17 16 16 15 15 15 15 14 14 14 14 14 14 14 14 14 14 14 14 14 13 13 13 13 12 12 12 12 12 11 12 12 12 12 12 12 11 11 12 12 12 11 11 11 11 11 11 11 11 11 11 11 11 11 11 11 11 11 11 11
17 17 17 17 17 16 16 15 15 15 15 14 14 14 14 14 14 15 14 15 15 14 14 13 13 13 13 13 12 12 12 12 12 11 11 11 12 12 12 12 12 11 12 12 12 11 11 11 12 12 12 11 11 11 11 11 11 11 11 11 11 11 11
16 17 17 17 17 16 16 16 15 15 15 15 15 14 14 14 15 15 15 15 15 15 14 14 14 14 13 13 12 12 12 12 12 12 11 11 11 12 12 12 12 12 11 11 11 12 12 12 12 12 12 12 12 11 11 11 11 11 11 11 11 11 11
16 16 17 16 17 17 16 16 15 15 15 15 15 14 14 14 15 15 15 15 15 15 14 14 14 14 14 13 13 13 13 12 12 12 12 11 11 12 12 12 12 12 12 12 11 12 12 12 12 12 12 12 12 12 12 11 11 11 11 11 11 11 11
17 17 16 17 17 16 16 16 16 15 15 15 15 15 15 15 15 15 15 15 15 15 15 15 14 14 14 14 13 13 13 13 13 12 12 12 12 12 12 12 12 12 12 12 12 12 12 12 12 12 12 12 12 12 12 12 11 11 11 11 11 11 11
17 17 17 17 17 16 16 16 16 15 15 15 15 15 15 15 15 15 15 15 15 15 15 15 15 15 15 14 14 14 13 13 13 13 13 13 12 12 12 12 12 12 12 12 12 12 12 12 12 12 12 12 12 12 12 12 12 12 12 11 11 11 11
16 17 17 17 16 16 16 16 16 15 15 15 15 15 15 15 15 15 15 15 15 15 15 15 15 15 15 15 14 14 14 14 13 13 13 13 13 13 12 12 12 12 12 12 12 12 12 12 12 12 13 12 12 12 12 12 12 12 12 12 12 12 12
16 16 17 17 16 16 16 16 16 16 15 15 15 15 15 15 15 15 15 15 15 15 15 15 15 15 15 15 15 14 14 14 14 14 14 14 13 13 13 13 13 12 12 12 12 12 12 12 13 13 13 13 12 12 12 13 12 12 12 12 12 12 12
17 16 16 16 16 16 16 16 16 16 16 16 15 15 15 15 15 15 15 15 15 15 15 15 15 15 15 15 15 15 15 15 14 14 14 14 14 14 13 13 13 13 13 13 13 13 13 13 13 13 13 13 13 13 13 13 13 13 12 12 12 12 12
16 15 14 14 14 15 16 17 17 16 16 16 16 16 15 15 15 15 15 15 15 15 15 15 15 15 15 15 15 15 15 15 15 15 14 14 14 14 14 14 13 13 13 13 13 13 13 13 13 13 13 13 13 13 13 13 13 13 13 12 12 13 12
15 13 14 14 14 14 15 15 16 16 16 16 16 16 16 15 15 15 15 15 15 15 15 15 15 15 15 15 15 15 15 15 15 15 14 14 14 14 14 14 14 14 13 13 13 13 13 13 13 13 13 13 13 13 13 13 13 13 13 12 12 13 13
14 13 13 13 14 14 14 14 14 15 15 15 15 15 15 15 15 15 15 15 15 15 15 15 15 15 15 15 15 15 15 15 15 15 15 14 14 14 14 14 14 14 14 14 13 13 13 13 13 13 13 13 13 13 13 13 13 13 13 13 12 12 13
12 12 12 12 13 13 13 13 13 13 14 14 14 14 14 14 15 15 15 15 15 15 15 15 15 15 15 15 15 15 15 15 15 15 15 15 15 15 15 15 14 14 14 14 14 13 13 13 14 14 13 13 13 13 13 13 14 13 13 13 13 12 13
11 11 11 11 12 12 12 13 13 13 13 13 14 14 14 14 14 14 15 15 15 14 14 14 14 14 15 15 15 15 15 15 15 15 15 15 15 15 15 15 15 14 14 14 14 14 13 13 14 14 14 13 13 13 13 14 13 13 13 13 13 13 13
11 12 11 11 11 11 12 12 12 13 13 13 13 13 13 13 14 15 15 14 14 14 13 12 13 13 14 15 15 15 15 15 15 15 15 15 15 15 15 15 15 14 14 14 14 14 14 14 14 14 14 14 13 13 13 14 13 13 13 13 13 13 13
11 11 11 11 11 11 11 11 11 12 12 12 13 13 13 13 13 14 14 14 13 14 13 13 12 12 12 14 15 15 15 15 15 15 15 15 15 15 15 15 15 14 14 14 14 14 14 14 14 14 14 14 14 13 13 13 13 13 13 13 13 13 13
11 11 11 11 11 11 11 11 11 11 11 12 12 13 13 13 13 13 13 13 13 13 14 14 14 13 13 13 15 15 15 15 15 15 15 15 15 15 15 15 15 14 14 14 14 14 14 14 14 14 14 14 14 14 13 13 13 13 13 13 13 13 13
11 11 11 11 11 12 12 11 11 11 11 11 12 12 12 13 13 12 12 12 13 13 14 14 14 14 14 14 14 15 15 15 15 15 15 15 15 15 15 15 15 14 14 14 14 14 14 14 14 14 14 14 14 14 14 14 13 13 13 13 13 13 12
10 10 11 11 11 11 12 12 12 11 11 11 11 12 12 12 12 12 12 12 13 13 13 13 13 14 14 14 15 16 16 16 16 15 15 15 15 15 15 15 15 15 14 14 14 14 14 14 14 14 14 14 14 14 14 14 14 13 13 13 13 13 13
10 10 10 11 11 11 11 11 12 12 12 12 11 11 11 12 12 12 12 13 13 13 13 13 13 14 14 15 15 16 16 16 16 16 16 16 16 16 15 15 15 15 14 14 14 14 14 14 14 14 14 14 14 14 14 15 15 14 14 13 13 13 13
9 9 9 10 11 11 11 11 12 12 12 12 12 12 12 12 12 12 12 13 13 14 13 13 13 14 14 15 15 16 16 16 16 16 16 16 16 16 15 15 15 15 15 14 14 14 14 14 14 14 14 14 14 14 14 14 15 15 14 14 13 13 13
9 9 9 10 10 11 11 11 12 12 12 12 12 12 12 12 11 12 12 12 13 14 14 14 14 14 14 14 15 15 16 16 16 16 16 16 16 16 15 15 15 15 15 14 14 14 14 14 14 14 14 14 14 14 14 14 14 15 15 15 14 14 13
8 8 8 9 10 10 11 11 11 12 12 12 13 13 12 12 12 12 12 12 13 14 15 15 15 14 13 13 14 15 16 16 16 17 16 16 16 16 15 15 15 15 15 14 14 14 14 14 14 14 14 14 14 14 14 14 14 14 14 14 14 14 14
8 8 8 9 10 10 11 11 11 12 12 12 13 13 13 13 13 13 13 13 13 14 14 15 15 14 13 13 13 14 15 16 16 16 16 16 16 16 16 15 15 15 15 15 14 14 14 14 14 14 14 14 14 14 14 14 14 14 14 14 14 14 14
8 8 8 8 9 10 10 11 11 12 12 12 12 13 13 13 13 13 14 14 14 14 14 14 14 14 14 14 14 14 15 16 16 16 16 16 16 16 16 15 15 15 15 15 14 14 14 14 14 14 14 14 13 14 14 14 14 14 14 14 14 14 14
7 8 8 8 9 9 10 11 11 12 12 12 12 12 13 13 14 14 14 15 14 14 14 14 14 15 15 14 14 14 15 16 16 16 16 16 16 16 16 16 15 15 15 15 15 14 14 14 14 14 14 13 13 13 13 14 14 14 14 14 14 14 14
7 7 8 8 8 9 10 11 11 12 12 12 12 12 13 13 14 14 15 15 15 15 14 14 15 15 16 16 15 15 15 16 16 16 16 16 16 16 16 16 15 15 15 15 15 15 15 14 14 14 14 13 13 13 13 13 14 14 14 14 14 14 14
7 7 7 8 8 9 10 10 11 12 12 12 12 12 13 13 14 14 15 15 15 15 15 15 15 16 16 16 16 16 16 16 16 16 17 17 16 16 16 16 16 15 15 15 15 15 15 15 14 14 14 13 13 13 13 13 14 14 14 14 14 14 14
7 7 7 7 8 9 10 10 11 11 12 13 13 13 13 13 14 14 15 15 15 16 16 16 16 16 17 17 17 17 17 17 17 17 17 17 16 16 16 16 15 15 15 15 15 15 15 15 14 14 14 13 13 13 13 13 13 14 14 14 14 14 14
6 7 7 7 8 9 10 10 11 11 12 13 13 13 13 13 14 14 15 15 15 16 16 16 16 16 17 17 17 17 17 17 17 17 17 16 16 16 16 16 16 16 16 16 15 15 15 15 15 14 14 13 13 13 13 13 13 14 14 14 14 14 14
7 7 7 7 8 9 10 10 11 11 12 13 13 13 13 13 14 14 14 15 15 15 15 15 15 15 16 16 16 16 16 16 16 16 16 16 16 16 16 16 16 16 16 16 15 15 15 15 15 14 14 14 13 13 13 13 14 14 14 14 14 14 14
7 7 7 7 7 8 9 10 11 11 12 12 13 13 13 13 14 14 14 15 15 15 15 14 14 14 15 14 14 13 13 14 14 15 16 16 16 16 16 17 16 16 16 16 16 15 15 15 15 14 14 14 14 14 13 14 14 14 14 14 14 14 14
6 6 6 7 7 7 8 9 10 11 12 12 13 13 13 13 14 14 14 14 15 15 15 14 13 14 14 14 13 12 12 12 13 14 14 15 16 16 16 16 16 16 16 16 16 15 15 15 15 15 14 14 14 14 14 14 14 14 14 14 14 13 13
6 6 5 6 6 6 7 8 8 9 11 12 12 13 13 13 14 14 14 14 14 14 14 13 13 13 13 13 14 13 13 14 14 14 13 13 13 14 15 16 16 16 16 16 16 15 15 15 15 15 15 15 14 14 14 14 14 14 13 13 13 13 13

ECMWFFLT1_700_temp_060.txt.gz
Temp
16 16 15 15 14 14 14 14 14 15 14 14 14 14 14 14 13 13 13 13 13 12 12 11 11 11 11 12 12 12 12 11 11 11 11 11 11 11 11 11 11 11 11 11 11 11 10 10 11 11 11 11 11 11 11 10 10 10 10 11 11 11 11
16 16 16 15 15 14 14 14 14 15 15 14 14 14 14 14 14 14 13 13 13 12 12 11 11 11 11 11 11 12 12 12 12 11 11 11 11 11 11 11 11 11 11 11 11 10 10 11 11 11 11 11 11 11 11 11 11 11 11 11 11 11 11
16 16 16 16 16 15 15 15 15 15 15 15 14 14 14 14 14 14 14 14 13 13 12 12 12 11 11 11 11 11 11 12 12 12 11 11 11 11 11 11 11 10 10 11 11 11 10 11 11 11 11 11 11 11 11 11 11 11 11 11 11 11 11
17 16 16 16 16 16 15 15 15 15 15 15 15 15 15 14 14 14 14 14 13 13 13 12 12 12 12 12 11 11 11 11 12 12 11 11 11 11 11 11 11 11 10 10 10 10 11 10 10 10 10 11 11 11 11 11 11 11 11 11 11 11 11
17 17 16 16 16 16 15 15 15 15 15 15 15 15 14 14 14 14 14 14 13 13 13 13 12 12 12 12 12 12 11 11 11 12 12 11 11 11 11 11 11 11 11 10 10 10 11 11 11 10 10 10 11 11 11 11 11 11 11 11 11 11 11
18 17 16 16 16 16 16 15 15 15 15 15 15 15 14 14 14 14 14 14 14 13 13 13 13 12 12 12 12 12 12 11 11 11 11 11 11 11 11 11 11 11 11 11 11 11 11 11 11 11 11 11 11 11 11 11 11 11 11 11 11 11 11
18 17 17 17 16 16 16 16 15 15 15 15 15 14 14 14 14 14 14 14 14 13 13 13 13 13 12 12 12 12 12 12 11 11 11 11 11 11 11 11 11 11 11 11 11 11 11 11 11 11 11 11 11 11 11 11 11 11 11 11 11 11 11
18 17 17 17 17 16 16 16 15 15 15 15 14 14 14 14 14 14 14 14 14 13 13 13 13 13 13 12 12 12 12 12 12 11 11 11 11 11 11 11 11 11 11 11 11 11 11 11 11 11 11 11 11 11 11 11 11 11 11 10 10 10 11
18 18 17 17 17 16 16 16 16 15 15 15 15 14 14 14 14 14 14 14 14 14 14 13 13 13 13 13 12 12 12 12 12 12 12 11 11 11 11 11 11 11 11 11 11 11 11 11 11 11 11 11 11 11 11 11 11 11 11 10 10 10 10
17 17 17 17 17 16 16 16 15 15 15 15 15 15 15 14 14 14 14 14 14 14 14 13 13 13 13 13 13 12 12 12 12 12 12 12 12 12 11 11 11 11 11 11 11 11 11 11 11 11 11 11 11 11 11 11 11 11 11 11 10 10 10
16 16 16 17 16 16 16 16 15 15 15 15 15 14 15 15 14 14 14 14 14 14 14 14 13 13 13 14 13 13 13 12 12 12 12 12 12 12 12 11 11 11 11 11 11 11 11 11 11 11 11 11 11 11 11 11 11 11 11 11 11 10 10
15 14 14 15 15 15 16 16 16 15 15 15 15 14 15 15 15 14 14 14 15 15 14 14 14 13 13 13 14 13 13 13 13 13 13 13 12 12 12 12 12 11 11 11 11 11 11 11 12 12 12 12 12 11 11 11 11 11 11 11 11 11 10
14 14 14 14 14 14 14 14 15 15 15 15 15 15 15 15 15 15 15 15 15 15 15 14 14 14 14 14 14 14 14 13 13 13 13 13 13 12 12 12 12 12 12 12 11 12 12 12 12 12 12 12 12 12 11 11 12 11 11 11 11 11 10
13 13 13 13 13 13 13 13 13 13 14 14 14 14 15 15 15 15 15 15 15 15 15 14 14 14 14 14 14 14 14 14 14 14 13 13 13 13 13 12 12 12 12 12 12 12 12 12 12 12 12 12 12 12 12 11 12 12 12 11 11 11 11
12 12 13 13 13 13 13 13 13 13 13 13 13 13 13 14 14 14 14 14 14 14 15 14 14 14 14 14 14 14 14 14 14 14 14 13 13 13 13 13 13 12 12 12 12 12 12 12 12 12 12 12 12 12 12 12 12 12 12 12 11 11 11
10 11 12 12 13 13 13 13 13 13 13 13 13 12 12 12 13 13 14 14 14 14 14 14 14 14 14 14 14 14 14 14 14 14 14 14 14 13 13 13 13 13 13 12 12 12 12 12 12 12 12 12 12 12 12 12 12 12 12 12 11 11 11
9 9 10 11 12 12 13 13 13 13 13 13 13 13 12 12 12 13 13 13 13 13 14 14 14 14 14 14 15 15 14 14 14 14 14 14 14 14 14 13 13 13 13 13 13 12 12 12 12 12 12 12 12 12 12 12 12 12 12 12 11 11 11
8 8 9 10 11 11 12 12 12 12 13 13 13 13 13 13 13 13 12 12 13 13 13 14 14 14 14 14 14 15 15 14 14 14 14 14 14 14 14 14 14 13 13 13 13 13 12 12 12 12 12 12 12 12 12 12 13 12 12 12 12 11 11
8 8 8 9 10 10 11 11 11 12 12 12 13 13 13 13 13 13 13 12 12 13 13 14 14 14 14 14 14 15 15 15 14 14 14 14 14 14 14 14 14 14 14 13 13 13 13 13 12 12 12 13 13 13 12 12 12 12 12 12 12 12 12
8 8 8 8 9 9 10 10 11 11 11 12 12 13 13 13 13 13 13 12 11 12 12 13 13 14 14 14 14 14 15 15 15 15 14 14 14 14 14 14 14 14 14 14 13 13 13 13 13 13 13 13 13 13 13 12 12 12 12 12 12 12 12
8 8 8 8 8 9 9 9 9 10 10 11 12 12 12 13 13 13 13 13 12 12 12 12 13 13 13 14 14 14 14 14 15 15 15 14 14 14 14 14 14 14 14 14 14 14 13 13 13 13 13 13 13 13 13 13 12 12 12 12 12 12 12
8 8 8 8 8 9 9 9 9 9 10 10 11 11 11 12 13 13 13 13 13 13 12 12 13 13 13 13 14 14 14 14 14 14 14 14 14 14 14 14 14 14 14 14 14 14 14 13 13 13 13 13 13 13 13 13 13 12 12 12 12 12 12
8 8 8 8 8 8 9 9 9 9 9 10 10 11 11 11 12 13 13 13 13 13 13 13 13 13 13 13 14 14 14 14 14 14 14 14 14 14 14 14 14 14 14 14 14 14 14 14 13 13 13 13 13 13 13 13 13 13 12 12 12 12 12
8 8 8 8 8 8 8 9 9 9 9 9 10 10 11 11 12 12 13 13 13 13 13 13 13 13 13 14 14 14 14 14 15 15 14 14 14 14 14 14 14 14 14 14 14 14 14 14 14 13 13 13 13 13 13 13 13 13 13 12 12 12 12
7 8 8 8 8 8 8 8 9 9 9 9 10 10 10 11 12 12 12 13 13 13 13 13 13 13 14 14 14 14 13 14 14 15 15 14 14 14 14 14 14 14 14 14 14 14 14 14 14 14 13 13 13 13 13 13 13 13 13 13 12 12 12
7 7 8 8 8 8 9 9 9 9 9 10 10 10 10 11 11 12 13 13 13 13 13 13 13 13 14 15 15 14 14 14 14 15 15 15 15 14 14 14 14 14 14 14 14 14 14 14 14 14 14 13 13 13 13 13 13 13 13 13 13 12 12
7 7 8 8 8 8 8 8 8 9 9 10 10 10 10 10 11 12 12 13 13 13 13 13 13 13 13 14 15 15 15 15 15 15 15 15 15 14 14 14 14 14 14 14 14 14 14 14 14 14 14 14 13 13 13 13 13 13 13 13 13 13 12
6 7 7 7 8 8 8 8 8 8 9 9 10 10 10 10 11 11 12 12 13 13 13 13 13 13 13 13 14 15 15 16 16 15 15 15 15 14 14 14 14 14 13 13 13 13 14 14 14 14 14 14 14 14 14 13 13 13 13 13 13 13 13
6 6 7 7 7 8 8 8 8 8 9 9 10 10 11 11 11 11 11 12 12 12 13 13 13 13 13 13 14 14 14 15 15 15 15 15 15 15 14 14 14 14 13 13 13 13 13 13 14 14 14 14 14 14 14 14 13 13 13 13 13 13 13
6 6 7 7 7 8 8 8 8 8 8 9 10 10 11 11 11 11 11 11 12 12 12 13 13 13 14 14 14 13 14 14 15 15 16 15 15 15 15 15 14 14 14 13 13 13 13 14 14 14 14 14 14 14 14 14 13 13 13 13 13 13 13
6 6 7 7 7 8 8 8 8 8 8 9 9 10 10 11 11 11 12 12 12 12 12 13 13 14 14 14 14 14 14 14 14 14 15 16 16 15 15 15 15 14 14 14 13 13 13 14 14 14 14 14 14 14 14 14 13 13 13 13 13 13 13
5 6 6 7 7 8 8 8 8 8 9 9 9 10 10 11 11 11 12 12 12 12 13 13 13 13 13 14 14 14 14 14 14 14 14 15 16 16 16 16 15 14 14 14 14 14 14 14 14 14 14 14 14 14 14 13 13 13 13 13 13 13 13
5 6 6 7 7 7 8 8 9 9 9 9 9 10 10 10 11 11 12 12 12 13 13 13 13 14 14 14 14 14 14 14 14 14 14 14 15 16 16 15 15 14 14 14 14 14 14 14 14 14 14 14 14 14 14 13 13 13 13 13 13 13 13
4 5 6 6 7 7 8 8 9 9 9 9 9 10 10 10 11 11 12 12 13 13 13 14 14 14 14 14 14 14 14 14 14 14 14 14 14 14 15 15 15 15 15 15 15 15 14 14 14 14 14 14 14 14 14 14 14 13 13 13 13 13 13
4 4 5 6 6 7 7 8 8 9 9 9 9 9 10 10 11 11 12 12 13 13 13 14 14 14 14 15 15 15 14 14 14 14 14 14 14 14 14 14 14 15 15 15 14 14 14 13 14 14 14 14 14 14 14 14 14 14 13 13 13 13 13
3 4 5 5 6 7 7 8 8 9 9 9 9 9 10 10 11 12 12 12 12 13 13 14 14 14 14 15 15 15 15 14 14 14 14 13 13 13 13 14 14 14 14 14 14 13 13 13 14 14 14 14 14 14 14 14 14 13 13 13 12 12 12
3 4 4 5 5 6 7 8 8 9 9 9 9 9 9 10 11 12 12 12 13 13 13 14 14 14 14 15 15 15 15 15 14 14 14 14 14 13 13 13 14 14 14 14 14 14 14 14 14 14 14 14 14 14 14 14 14 13 13 13 13 12 12
3 3 4 4 5 6 6 7 8 8 9 9 9 9 9 10 11 11 12 13 13 13 13 13 14 14 14 15 15 15 15 15 15 14 13 13 13 13 14 15 15 15 15 15 15 15 15 14 14 14 14 14 14 14 14 14 14 14 13 13 13 13 12

ECMWFFLT1_700_temp_063.txt.gz
Temp
15 15 14 14 14 14 14 14 13 13 13 13 13 13 13 13 13 13 12 12 12 12 12 12 12 12 12 12 12 11 11 11 11 11 11 11 10 10 10 10 10 10 10 10 10 10 10 10 10 10 10 10 10 10 10 10 10 10 10 10 10 10 10
15 14 14 14 15 15 15 14 13 13 13 13 13 13 13 13 13 13 13 13 13 12 12 12 12 12 12 12 12 12 11 11 11 11 11 11 10 10 10 10 10 10 10 10 10 10 10 10 10 10 10 10 10 10 10 10 10 10 10 10 10 10 10
15 15 15 15 15 15 15 15 14 14 14 13 13 13 13 14 14 13 13 13 13 13 12 12 12 12 12 12 12 12 12 11 11 11 11 11 11 10 10 10 10 10 10 10 10 10 10 10 10 10 10 10 10 10 10 10 10 10 10 10 10 10 10
15 15 16 16 15 15 15 15 14 14 14 14 14 14 14 14 14 13 13 13 13 13 12 12 12 12 12 12 12 12 12 11 11 11 11 11 11 11 10 10 10 10 10 10 10 10 10 10 10 10 10 10 10 10 10 10 10 10 10 10 10 10 10
15 15 15 16 16 15 15 15 15 15 14 14 14 14 14 14 13 13 13 13 13 13 13 12 12 12 12 12 11 11 11 11 11 11 11 11 11 11 11 11 10 10 10 10 10 10 10 10 10 10 10 10 10 10 10 10 10 10 10 10 10 10 10
16 15 15 16 16 16 15 15 15 15 15 14 14 14 14 14 13 13 13 13 13 12 12 12 12 12 12 12 12 11 11 11 11 11 11 11 11 11 11 11 11 10 10 10 10 10 10 10 10 10 10 10 10 10 10 10 10 10 10 10 10 10 10
16 16 16 16 16 16 16 16 15 15 15 14 14 14 14 14 14 13 13 13 13 13 12 12 12 12 12 12 12 11 11 11 11 11 11 11 11 11 11 11 11 11 11 10 10 10 10 10 10 10 10 10 10 10 10 10 10 10 10 10 10 10 10
16 17 16 16 16 17 16 16 16 15 15 15 14 14 14 14 14 13 13 13 13 13 13 12 12 12 12 12 12 12 12 11 11 11 11 11 11 11 11 11 11 11 11 11 10 10 10 10 10 10 10 10 10 10 10 10 10 10 10 10 10 10 10
16 16 16 15 14 15 15 15 15 15 15 15 14 14 14 14 14 13 13 13 13 13 13 12 12 12 12 12 12 12 12 11 11 11 11 11 11 11 11 11 11 11 11 11 11 10 10 10 10 10 10 10 10 10 10 10 10 10 10 10 10 10 10
16 16 16 15 13 12 12 13 13 14 15 15 15 14 14 14 14 14 13 13 13 13 13 13 12 12 12 12 12 12 12 12 11 11 11 11 11 11 11 11 11 11 11 11 11 11 11 10 10 10 10 10 10 10 10 10 10 10 10 10 10 10 10
15 16 16 15 14 12 11 11 11 12 13 14 14 14 14 14 14 14 13 13 13 13 13 13 12 12 12 12 12 12 12 12 12 12 12 12 11 11 11 11 11 11 11 11 11 11 11 11 11 10 10 10 10 10 10 10 10 10 10 10 10 10 10
12 14 15 16 15 13 12 11 11 11 11 11 12 13 14 14 14 14 13 13 13 13 13 13 13 12 12 13 13 13 12 12 12 12 12 12 12 12 11 11 11 11 11 11 11 11 11 11 11 11 11 11 11 11 10 10 10 10 10 10 10 10 10
9 11 13 15 15 14 13 13 12 11 11 11 11 11 12 12 13 13 13 13 13 13 13 13 13 13 12 12 13 13 13 13 13 12 12 12 12 12 11 11 11 11 11 11 11 11 11 11 11 11 11 11 11 11 11 10 10 10 10 10 10 10 10
9 9 10 12 13 14 14 13 12 12 12 11 11 11 11 11 11 12 12 12 12 12 13 13 13 13 12 12 12 13 13 13 13 13 12 12 12 12 12 12 11 11 11 11 11 11 11 11 11 11 11 11 11 11 10 10 10 10 10 10 10 10 10
8 9 9 10 11 12 12 13 12 12 12 12 12 12 11 11 11 11 11 12 12 12 12 12 12 12 12 12 12 12 13 13 13 13 13 12 12 12 12 12 12 11 11 11 11 11 11 11 11 11 11 11 11 11 11 11 11 10 10 10 10 10 10
7 8 9 9 9 10 11 11 11 11 11 12 12 12 12 12 11 11 11 12 12 12 12 12 12 12 12 13 13 12 12 12 13 13 13 13 13 12 12 12 12 12 11 11 11 11 11 11 11 11 11 11 11 11 11 11 11 11 11 10 10 10 10
7 7 7 8 9 9 10 10 10 11 11 11 11 12 12 12 12 12 11 11 11 12 12 12 12 12 12 13 13 13 12 12 12 12 13 13 13 13 12 12 12 12 12 12 12 12 11 11 11 11 11 11 11 11 11 11 11 11 11 11 11 10 10
7 7 7 7 8 9 9 10 10 10 10 10 11 11 11 12 12 12 12 11 11 11 12 12 12 12 13 13 13 13 13 12 12 12 13 13 13 13 13 13 12 12 12 12 12 12 12 12 12 12 11 11 11 11 11 11 11 11 11 11 11 10 10
8 7 7 6 6 7 8 9 10 10 10 10 10 10 11 11 12 12 12 12 12 12 12 12 13 13 13 13 13 13 13 12 12 12 12 13 13 13 13 13 13 12 12 12 12 12 12 12 12 12 12 12 12 12 12 12 12 11 11 11 11 11 11
8 8 7 7 7 6 7 8 9 9 10 10 10 10 10 11 11 12 12 12 12 12 12 12 12 13 13 13 13 13 13 12 12 12 12 12 12 13 13 13 13 13 13 12 12 12 12 12 12 12 12 12 12 12 12 12 12 12 11 11 11 11 11
7 7 7 7 7 7 7 7 7 8 9 9 10 10 10 10 11 11 12 12 12 12 12 12 12 12 13 13 13 13 13 12 12 12 12 12 12 12 12 13 13 13 13 13 12 12 12 12 12 12 12 12 12 12 12 12 12 12 12 12 11 11 11
7 7 7 7 8 7 7 7 7 7 8 8 9 9 10 10 10 11 11 12 12 12 12 12 12 12 12 12 12 12 12 12 12 12 12 12 12 12 12 12 13 13 13 13 13 13 13 12 12 13 12 12 12 12 12 12 12 12 12 12 12 11 11
6 7 7 7 7 8 7 7 7 7 7 7 8 8 9 10 10 10 10 11 12 12 12 12 12 12 12 12 12 12 12 12 13 13 13 12 12 12 12 12 12 13 13 13 13 13 13 13 13 13 13 13 13 12 13 13 12 12 12 12 12 11 11
5 6 6 7 7 7 7 7 7 8 8 7 7 7 8 9 10 10 10 11 11 12 12 12 12 12 12 12 12 12 12 12 13 13 13 13 13 13 13 12 12 12 12 12 12 13 13 13 13 13 13 13 13 13 13 13 13 12 12 12 12 12 11
5 5 6 6 6 7 7 7 7 7 8 8 7 7 8 9 9 9 10 11 11 11 12 12 12 12 12 12 12 12 13 13 13 13 13 13 13 13 13 13 13 13 12 13 13 13 13 13 13 13 13 13 13 13 13 13 13 13 12 12 12 12 12
4 4 5 6 6 6 7 7 7 7 7 8 8 7 7 8 8 9 10 10 10 11 11 12 12 12 12 12 12 12 13 13 13 13 14 14 14 14 13 13 13 13 13 13 13 13 13 13 13 13 13 13 13 13 13 13 13 13 13 13 12 12 12
4 4 5 5 6 6 6 7 7 7 7 8 8 8 8 7 8 8 9 9 10 10 11 11 12 12 12 12 12 12 13 13 13 14 14 14 14 14 14 14 13 13 13 13 13 13 13 13 13 13 13 13 13 13 13 13 13 13 13 13 12 12 12
4 4 4 5 5 6 6 6 6 6 7 8 8 8 8 8 8 8 8 8 9 10 10 11 11 12 12 12 12 12 13 13 13 13 13 13 13 13 14 14 14 14 14 13 13 13 13 13 13 13 13 13 13 14 14 13 13 13 13 13 13 13 12
3 4 4 5 5 5 6 6 6 6 7 8 8 8 8 9 9 9 8 9 9 9 10 10 11 12 12 12 13 13 13 13 13 13 13 13 13 13 13 13 14 14 14 14 13 13 13 13 13 13 14 14 14 14 14 14 14 13 13 13 13 13 13
3 3 4 4 5 5 6 6 6 7 7 8 8 8 8 9 9 9 9 9 9 9 10 10 10 11 12 12 13 13 13 13 13 13 13 13 13 13 13 13 13 13 13 14 14 14 14 14 14 14 14 14 14 14 14 14 14 14 13 13 13 13 13
2 3 3 4 4 5 5 6 6 7 7 8 8 9 8 9 9 9 9 10 10 10 10 10 10 10 11 12 12 13 13 13 13 13 13 13 13 13 13 13 13 13 13 13 14 14 14 14 14 14 14 14 14 14 14 14 14 14 14 13 13 13 13
2 2 3 3 4 4 5 6 6 7 7 8 8 9 9 9 9 9 10 10 10 10 10 10 10 10 11 11 12 12 13 13 13 13 13 13 13 13 13 13 12 13 13 13 13 14 14 14 14 14 14 14 14 14 14 14 14 14 14 14 13 13 13
2 2 2 3 3 4 4 5 6 6 7 8 8 8 9 9 9 9 9 10 10 10 11 11 11 11 11 11 12 12 13 13 13 13 13 13 13 13 14 13 13 13 13 13 13 14 14 14 15 14 14 14 14 14 14 14 14 14 14 14 13 13 13
2 2 2 2 3 3 4 5 6 6 7 7 8 8 8 9 9 9 9 10 10 10 11 11 11 11 11 11 12 12 13 13 13 13 13 13 13 13 14 14 13 13 13 13 13 14 14 14 15 15 15 14 14 14 14 14 14 14 14 14 14 13 13
2 2 2 2 3 3 4 5 5 6 6 7 8 8 8 9 9 9 9 9 10 10 11 11 11 11 11 12 12 12 13 13 13 13 13 13 13 13 14 14 13 13 13 14 14 14 14 14 15 15 15 15 14 14 14 15 15 15 14 14 14 14 13
2 2 2 2 2 3 3 4 5 6 6 7 7 8 9 9 9 9 9 9 10 10 10 11 11 11 12 12 12 12 13 13 13 13 13 13 14 14 14 14 14 14 14 14 14 14 14 14 15 15 15 15 15 14 14 15 15 15 14 14 14 14 13
2 2 2 2 2 3 3 3 4 5 6 7 7 8 8 9 9 9 9 9 10 10 10 11 11 11 12 12 12 12 13 13 13 13 13 14 14 14 14 14 14 14 14 14 14 14 14 15 15 15 15 15 15 14 15 15 15 14 14 15 14 14 13
2 2 2 2 2 3 3 3 4 5 6 6 7 7 8 8 9 10 10 10 10 10 10 10 11 11 11 12 12 12 13 13 13 13 13 14 14 14 14 14 15 14 14 14 14 15 15 15 15 15 14 14 14 14 14 14 14 14 14 14 14 14 13

ECMWFFLT1_700_temp_069.txt.gz
Temp
15 14 14 13 13 13 12 12 12 12 12 12 12 11 11 11 11 11 11 11 11 11 11 11 11 11 11 11 11 11 10 10 10 10 10 10 10 10 10 10 10 10 10 10 10 9 9 10 10 10 10 10 9 9 9 9 9 9 9 9 9 9 9
15 15 15 14 14 13 13 13 12 12 12 12 12 11 11 11 11 11 11 11 11 11 11 11 11 11 11 11 11 11 11 11 10 10 10 10 10 10 10 10 10 10 10 10 10 10 9 10 10 10 10 10 10 10 9 9 9 9 9 9 9 9 9
15 15 14 14 14 14 14 13 13 12 12 12 12 12 12 12 11 11 11 11 11 11 11 11 11 11 11 11 11 11 11 11 11 11 10 10 10 10 10 10 10 10 10 10 10 10 10 10 10 10 10 10 10 10 10 9 9 9 9 9 9 9 9
15 15 15 15 14 14 14 14 13 13 12 12 12 12 12 12 11 11 11 11 11 11 11 11 11 11 11 11 11 11 11 11 11 11 11 10 10 10 10 10 10 10 10 10 10 10 10 10 10 10 10 10 10 10 10 10 9 9 9 9 9 9 9
15 15 15 15 15 15 14 14 14 13 13 12 12 12 11 11 11 11 11 11 11 11 11 11 11 11 11 11 11 11 11 11 11 11 11 11 10 10 10 10 10 10 10 10 10 10 9 10 10 10 10 10 10 10 10 10 10 10 9 9 9 9 9
15 15 15 15 15 15 15 14 14 14 13 12 12 12 11 11 11 11 11 11 11 11 11 11 11 11 11 11 11 11 11 11 11 11 11 11 10 10 10 10 10 10 10 10 10 10 9 9 10 10 10 10 10 10 10 10 10 10 10 9 9 9 9
14 15 15 15 15 15 15 15 15 14 14 13 13 12 12 11 11 11 11 11 10 10 10 11 11 11 11 11 11 11 11 11 11 11 11 11 11 11 10 10 10 10 10 10 10 10 10 10 10 10 10 10 10 10 10 10 10 10 10 10 9 9 9
14 15 15 15 15 15 15 15 15 15 15 14 14 13 12 12 11 11 11 10 10 10 10 10 10 11 11 11 11 11 11 11 11 11 11 11 11 11 10 10 10 10 10 10 10 10 10 10 10 10 10 10 10 10 10 10 10 10 10 10 9 9 9
14 14 14 15 15 15 15 15 15 15 15 15 14 14 13 12 12 11 11 10 10 10 10 10 10 10 10 10 11 11 11 11 11 11 11 11 11 11 11 10 10 10 10 10 10 10 10 10 10 10 10 10 10 10 10 10 9 9 10 9 9 9 9
12 13 13 14 14 15 15 15 14 14 14 14 14 14 14 13 13 12 11 11 10 10 10 10 10 10 10 10 10 10 11 11 11 11 11 11 11 11 11 10 10 10 10 10 10 10 10 10 10 10 10 10 10 10 10 10 10 9 9 9 9 9 9
11 11 12 12 13 13 14 14 13 13 13 13 13 13 13 13 13 13 12 11 11 11 10 10 10 10 10 10 10 10 10 11 11 11 11 11 11 11 11 11 10 10 10 10 10 10 10 10 10 10 10 10 10 10 10 10 10 10 10 10 10 9 9
9 10 10 10 11 11 12 12 12 12 12 11 11 12 12 13 13 12 12 12 11 11 11 11 10 10 10 10 10 10 10 10 11 11 11 11 11 10 10 11 10 10 10 10 10 10 10 10 10 10 10 10 10 10 10 10 10 10 10 10 10 10 10
8 8 9 9 9 9 10 11 11 10 10 10 10 10 11 12 12 12 12 12 11 11 11 11 11 10 10 10 10 10 10 10 10 11 11 11 11 10 10 10 10 10 10 10 10 10 10 10 10 10 10 10 10 10 10 10 10 10 10 10 10 10 10
7 8 8 8 8 8 9 9 10 9 9 9 9 9 9 10 11 12 12 12 12 11 11 11 11 10 10 10 10 10 10 10 10 10 10 10 10 10 10 10 10 10 10 10 10 10 10 10 10 10 10 10 10 10 10 10 10 10 10 10 10 10 10
7 8 7 7 8 8 8 9 9 9 9 9 9 9 9 9 10 11 12 12 12 12 11 11 11 11 10 10 10 10 10 10 10 10 10 10 10 10 10 10 10 10 10 10 10 10 10 10 10 10 10 10 10 10 10 10 10 10 10 10 10 10 10
7 8 8 8 8 8 8 8 9 9 9 9 9 9 9 9 9 10 11 11 12 12 12 12 11 11 11 11 11 10 10 10 10 10 10 10 10 10 10 10 10 10 10 10 10 10 10 10 10 10 10 10 10 10 10 10 10 10 10 10 10 10 10
7 7 8 8 8 8 8 8 8 8 9 9 9 9 9 9 9 9 9 10 11 12 12 12 12 12 12 11 11 11 10 10 10 10 10 10 10 10 10 10 10 10 10 10 10 10 10 10 10 10 10 10 10 10 10 10 10 10 10 10 10 10 10
7 7 7 8 8 8 7 7 8 8 8 8 9 9 9 9 9 9 9 9 10 11 11 12 12 12 12 12 11 11 11 11 10 10 10 10 10 10 10 10 10 11 11 11 11 11 10 10 10 10 10 10 10 10 10 10 10 10 10 10 10 10 10
6 7 7 7 7 7 7 7 7 8 8 8 8 8 9 9 9 9 9 9 9 10 11 11 12 12 12 12 12 11 11 11 11 10 10 10 10 10 10 10 10 11 11 11 11 11 11 11 11 10 10 10 10 10 10 10 11 10 10 10 10 10 10
6 6 7 7 7 7 7 7 7 7 7 8 8 8 8 8 9 9 9 9 9 9 10 10 11 12 12 12 12 12 11 11 11 11 11 10 10 10 10 10 10 11 11 11 11 11 11 11 11 11 11 10 11 11 11 11 11 11 10 10 10 10 10
6 6 6 6 7 7 7 7 7 7 7 7 7 7 7 8 8 8 9 9 9 9 9 10 11 11 12 12 12 12 12 11 11 11 11 11 10 10 10 10 10 10 11 11 11 11 11 11 11 11 11 11 11 11 11 11 11 11 11 11 11 10 10
5 6 6 6 6 7 7 7 7 7 7 7 7 7 7 7 7 8 8 9 9 9 9 9 10 10 11 11 12 12 12 12 12 12 11 11 11 11 10 10 10 10 10 10 11 11 11 11 11 11 11 11 11 11 11 11 11 11 11 11 11 11 11
4 5 5 5 6 6 7 7 7 7 8 8 7 7 7 7 7 7 8 8 8 9 9 9 9 10 10 11 12 12 12 12 12 12 12 11 11 11 11 11 11 10 10 10 11 11 11 12 12 12 12 11 11 11 12 12 12 11 11 11 11 11 11
4 4 4 4 5 5 6 6 7 7 7 8 8 8 7 7 7 7 7 8 8 8 8 9 9 9 10 11 11 11 11 11 12 12 12 12 12 11 11 11 11 11 11 10 11 11 11 12 12 12 12 12 12 12 12 12 12 12 12 12 12 11 11
3 3 4 4 4 5 5 6 6 6 7 7 8 8 8 8 7 7 7 7 8 8 8 8 8 9 9 10 10 11 11 11 11 11 11 12 12 12 12 11 11 11 11 11 11 11 11 11 12 12 12 12 13 13 13 13 13 12 12 12 12 12 12
2 3 3 3 4 4 4 5 5 6 6 7 7 8 8 8 8 8 8 7 7 8 8 8 8 8 8 9 9 10 11 11 11 11 11 11 11 11 12 12 11 11 11 11 11 11 11 11 12 12 13 13 13 13 13 13 13 13 13 13 12 12 12
1 2 2 3 3 3 4 4 5 5 6 6 7 7 8 8 8 8 8 8 8 7 8 8 8 8 8 8 9 9 10 10 11 11 11 11 11 11 11 11 11 11 11 11 11 11 11 11 12 12 13 13 13 13 13 13 13 13 13 13 13 13 13
1 1 1 2 2 3 3 4 4 4 5 5 6 6 7 8 8 8 8 8 8 8 8 8 8 8 8 8 8 8 9 9 10 10 11 10 10 10 11 10 10 11 12 11 11 11 11 11 11 12 12 13 13 13 13 13 13 13 13 13 13 13 13
2 2 2 2 2 2 2 3 3 4 4 5 5 6 6 7 8 8 9 9 8 8 8 8 8 8 8 8 8 8 8 9 9 9 10 10 10 10 11 10 10 11 11 11 12 12 12 12 11 12 12 12 13 13 13 13 13 13 13 13 13 13 13
2 2 2 2 2 2 2 3 3 3 4 4 4 5 6 6 7 8 8 9 9 8 8 8 8 8 8 8 8 8 8 8 9 9 10 10 11 11 11 11 11 11 11 11 11 12 12 12 12 12 12 12 13 13 13 13 13 13 14 14 14 13 13
2 2 2 2 2 2 2 2 3 3 3 3 4 4 5 5 6 7 7 8 9 9 9 9 8 8 8 8 8 8 8 8 9 9 10 10 11 11 12 12 11 11 11 11 11 12 12 12 12 12 12 12 13 13 13 13 13 13 14 14 14 14 14
2 2 2 3 3 2 2 2 2 3 3 3 3 4 4 4 5 6 7 7 8 9 9 9 8 8 8 8 8 8 8 8 9 9 10 10 10 11 11 11 11 12 11 11 11 11 12 12 12 12 12 12 13 13 13 13 13 14 14 14 13 13 14
2 2 2 3 3 3 3 3 3 3 3 2 3 3 3 4 4 5 6 6 7 8 9 9 9 9 9 9 8 8 8 8 8 9 9 10 10 10 11 11 11 11 12 11 11 12 12 12 12 12 12 12 13 13 13 13 13 14 14 14 14 14 13
2 2 2 2 3 3 3 3 3 3 3 3 2 2 3 3 4 4 5 6 6 7 8 9 9 9 9 9 9 8 8 8 8 9 9 9 10 10 10 11 11 11 11 12 12 11 12 12 12 12 12 12 12 12 13 13 13 14 14 14 13 13 13
1 1 2 2 2 3 3 3 3 3 3 3 3 2 2 3 3 4 4 5 6 7 7 9 9 10 9 9 9 9 8 8 8 9 9 9 9 10 10 11 11 11 11 12 12 12 12 12 12 12 12 12 12 12 12 13 13 13 13 13 12 12 12
1 1 1 2 2 2 3 3 3 3 3 3 3 2 2 3 3 4 4 4 5 6 7 8 9 9 10 10 9 9 9 8 8 9 9 9 9 10 10 10 11 11 11 12 12 12 12 12 12 12 12 13 13 13 13 13 13 13 12 12 12 12 12
0 1 1 1 1 2 2 2 2 2 3 3 3 3 3 2 3 3 4 4 5 5 6 7 8 9 10 10 10 9 9 9 9 9 9 9 9 10 10 10 10 11 11 12 12 12 12 12 13 13 13 13 13 13 13 13 14 13 13 12 12 12 12
-0 0 0 0 1 1 2 2 2 2 2 3 3 3 3 3 2 3 3 4 4 5 6 6 7 8 9 10 10 10 9 9 9 9 9 9 9 10 10 10 10 11 11 11 12 12 12 13 13 13 13 13 13 13 13 14 14 14 13 13 12 12 12

ECMWFFLT1_700_temp_072.txt.gz
Temp
11 10 11 12 13 12 12 12 11 11 11 11 10 10 10 10 11 11 11 11 11 11 11 11 11 11 11 11 11 10 10 10 10 10 10 10 10 10 10 10 10 10 10 10 9 9 9 9 9 9 9 9 10 10 10 10 10 10 10 10 10 9 9
12 12 12 13 13 13 12 12 11 11 11 11 11 10 10 10 11 11 11 11 11 11 11 11 11 11 11 11 11 11 10 10 10 10 10 10 10 10 10 10 10 10 10 10 10 10 10 10 9 9 10 10 10 10 10 10 10 10 10 10 10 10 9
13 13 13 14 14 14 13 12 12 12 11 11 11 11 10 10 10 11 11 11 11 11 11 11 11 11 11 11 11 11 11 10 10 10 10 10 10 10 10 10 10 10 10 10 10 10 10 10 10 10 10 10 10 10 10 10 10 10 10 10 10 10 10
13 13 13 13 13 13 13 12 12 12 12 11 11 11 11 11 10 10 10 10 10 10 10 10 11 11 11 10 11 11 11 11 10 10 10 10 10 10 10 10 10 10 10 10 10 10 10 10 10 10 10 10 10 10 10 10 10 10 10 10 10 10 10
14 14 14 14 13 13 12 12 12 12 12 12 11 11 11 11 11 10 10 10 10 10 10 10 10 10 10 10 10 10 11 11 11 10 10 10 10 10 10 10 10 10 10 10 10 10 10 10 10 10 10 10 10 10 10 10 10 10 10 10 10 10 10
13 14 14 14 14 13 13 13 13 12 12 12 12 11 11 11 11 10 10 10 10 10 10 10 10 10 10 10 10 10 10 11 11 10 10 10 10 10 10 10 10 10 10 10 10 10 10 10 10 10 10 10 10 10 10 10 10 10 10 10 10 10 10
13 13 14 15 15 14 14 13 13 13 12 12 12 11 11 11 11 11 11 10 10 10 10 10 10 10 10 10 10 10 10 10 11 10 10 10 10 10 10 10 10 10 10 10 10 10 10 10 10 10 10 10 10 10 10 10 10 10 10 10 10 10 10
13 13 14 14 15 15 15 14 14 13 13 12 12 12 12 12 11 11 11 11 10 10 11 11 11 11 11 10 10 10 10 10 10 11 11 10 10 10 10 10 10 10 10 10 10 10 10 10 10 10 10 10 10 10 10 10 10 10 10 10 10 10 10
13 13 13 14 15 15 15 15 14 13 13 13 12 12 12 12 12 11 11 11 11 11 10 11 11 11 11 11 11 11 10 10 10 11 11 11 11 10 10 10 10 10 10 10 10 10 10 10 10 10 10 10 10 10 10 10 10 10 10 10 10 10 10
12 13 13 14 14 15 15 15 14 13 13 12 12 12 12 12 12 12 12 11 11 11 11 10 10 10 11 11 11 11 11 11 11 11 11 11 11 10 10 10 10 10 10 10 10 10 10 10 10 10 10 10 10 10 10 10 10 10 10 10 10 10 10
11 11 12 13 13 14 14 15 14 13 12 12 12 12 12 11 12 12 12 12 11 11 11 10 10 10 10 10 10 11 11 11 11 11 11 11 10 10 10 10 10 10 10 10 10 10 10 10 10 10 10 10 10 10 10 10 10 10 10 10 10 10 10
9 10 11 12 12 13 13 14 14 13 12 11 11 11 11 11 11 11 11 11 12 12 11 11 11 10 10 10 10 10 11 11 11 11 11 11 11 10 10 10 11 11 10 10 10 10 10 10 10 10 10 10 10 10 10 10 10 10 10 10 10 10 10
9 9 10 11 11 12 12 12 13 12 12 11 11 11 11 11 11 11 11 11 11 12 12 11 11 11 11 10 10 10 11 11 11 11 11 11 11 10 10 10 11 11 10 10 10 10 10 10 10 10 10 10 10 10 10 10 10 10 10 10 10 10 10
8 9 9 10 10 10 10 10 11 11 11 10 10 10 11 11 10 10 11 11 11 11 11 12 11 11 11 11 11 11 11 10 10 10 10 10 10 10 10 10 10 10 10 10 10 10 10 10 10 10 10 10 10 10 10 10 10 10 10 10 10 10 10
8 8 8 8 9 9 9 9 9 9 9 10 10 10 10 10 10 10 10 10 11 11 11 11 11 11 11 11 11 11 11 11 10 10 10 10 10 10 10 10 10 10 10 10 10 10 10 10 10 10 10 10 10 10 11 11 10 10 10 10 10 10 10
8 8 8 8 8 8 8 8 8 8 9 9 9 9 9 9 9 10 10 10 10 10 11 11 11 11 11 11 11 10 10 11 11 10 10 10 11 10 10 10 10 10 10 10 10 10 10 10 10 10 10 10 10 11 11 11 11 11 11 10 10 10 10
7 7 8 8 8 8 8 8 8 8 8 9 9 9 9 9 9 9 9 9 10 10 10 10 10 10 11 11 10 10 10 10 10 10 10 11 11 11 11 11 11 10 10 10 10 10 10 10 10 10 10 10 10 11 11 11 11 11 11 11 11 10 10
7 7 7 8 8 8 8 8 8 8 8 8 9 9 9 9 9 9 9 9 9 9 10 10 10 10 11 11 10 10 10 10 10 10 11 11 11 11 11 11 11 11 11 11 11 10 10 10 10 10 10 10 10 11 11 11 11 11 11 11 11 11 11
7 7 7 7 7 7 8 8 8 8 8 8 8 8 9 9 9 9 9 9 9 9 9 10 10 10 11 10 11 10 10 10 10 10 11 11 11 11 11 11 11 11 11 11 11 11 11 11 10 10 10 10 10 11 11 11 11 11 11 11 11 11 11
6 7 7 7 7 7 7 7 7 8 8 8 8 8 8 9 9 9 9 9 9 9 9 9 10 10 10 11 11 11 10 10 10 10 10 10 10 10 11 11 11 11 11 11 11 11 11 11 11 11 10 10 10 11 11 11 11 11 11 11 11 11 11
6 6 7 7 7 7 7 7 7 7 7 8 8 8 8 8 8 8 9 9 9 9 9 10 10 10 10 10 10 11 11 10 10 10 11 11 11 11 10 11 11 11 11 11 11 11 11 11 11 11 11 11 11 11 11 11 11 11 11 11 11 11 11
6 6 7 7 7 7 7 7 7 7 7 7 7 8 8 8 8 8 8 9 9 9 9 9 10 10 10 10 10 10 10 11 11 10 11 11 11 11 11 10 10 11 11 11 11 11 11 11 11 11 11 11 11 11 11 11 11 11 11 11 11 11 11
6 6 6 7 7 7 7 7 7 8 8 8 8 7 7 7 8 8 8 8 9 9 9 9 9 10 10 10 10 10 10 11 11 10 10 11 10 10 11 10 10 10 10 10 11 11 11 12 12 12 12 11 11 11 11 11 11 11 11 11 11 11 11
5 5 5 6 6 7 7 7 7 8 8 8 8 8 8 7 7 8 8 8 8 9 9 9 9 9 10 10 10 10 10 10 10 10 10 10 10 10 10 10 10 10 10 10 10 11 11 11 12 12 12 12 12 12 12 12 12 12 12 11 11 11 11
5 5 5 5 5 6 7 7 7 7 7 8 8 8 8 8 8 7 7 8 8 8 8 9 9 9 10 10 9 10 10 10 10 10 10 10 10 10 10 10 10 9 9 9 10 10 11 11 11 12 12 12 12 12 12 12 12 12 12 12 12 12 12
5 5 5 5 5 5 5 6 7 7 7 7 8 8 8 8 8 8 8 8 8 8 8 8 8 9 9 10 10 10 10 10 10 10 10 11 11 10 10 10 10 10 9 9 9 10 10 10 11 11 12 12 12 12 13 13 13 13 13 12 12 12 12
4 4 4 4 4 4 5 5 6 6 7 7 7 7 7 8 8 8 8 8 8 8 8 8 8 8 9 9 9 10 10 10 10 10 10 10 11 10 10 10 10 10 10 10 10 10 10 10 11 11 11 12 12 12 13 13 13 13 13 13 13 13 13
4 4 4 4 4 4 4 4 4 5 6 6 7 7 7 7 8 8 8 8 8 8 8 8 8 8 8 8 9 9 10 10 10 10 10 10 10 10 10 10 10 10 10 10 11 11 11 11 11 12 12 12 12 12 12 13 13 13 13 13 13 13 13
3 3 3 3 3 3 3 4 4 4 4 5 6 6 7 7 7 7 8 8 8 8 8 8 8 8 8 8 8 8 9 9 9 10 10 10 9 10 10 11 11 11 11 11 11 11 11 11 11 12 12 12 12 12 12 13 13 13 13 13 13 13 13
3 3 3 3 3 3 4 4 4 4 3 4 5 5 6 6 7 7 7 8 8 8 9 9 9 8 8 8 8 8 8 8 9 9 9 9 9 10 10 10 11 11 11 11 11 11 11 11 11 11 12 12 12 12 13 13 13 13 13 13 13 13 13
3 3 3 3 4 4 4 4 4 4 4 3 4 4 5 6 6 7 7 7 7 8 8 9 9 9 9 8 8 8 8 8 8 8 9 9 9 10 10 10 10 11 11 11 11 12 12 12 11 11 12 12 12 12 13 13 13 13 13 13 13 13 13
2 2 3 3 3 4 4 4 4 4 4 4 3 3 4 5 5 6 6 7 7 7 8 8 8 9 9 9 9 8 8 8 8 8 8 9 9 10 10 10 10 11 11 11 11 12 12 12 12 11 12 12 12 12 12 12 12 12 13 13 13 13 13
2 2 2 3 3 3 4 4 4 4 4 4 4 3 3 4 4 5 6 6 6 7 7 8 8 8 9 9 9 9 9 8 8 8 8 8 9 9 10 10 10 10 11 11 11 11 12 12 12 12 11 12 12 12 12 12 12 12 12 12 12 12 12
1 2 2 2 2 3 3 4 4 4 4 4 4 4 3 4 4 4 5 5 6 6 7 7 8 8 8 9 9 9 9 9 9 8 8 8 9 9 9 10 10 10 10 10 10 11 11 11 11 11 11 11 11 11 11 12 12 12 12 11 11 11 12
1 1 1 2 2 2 2 3 3 4 4 4 4 4 4 4 4 4 4 4 5 5 6 7 7 8 8 8 8 9 10 9 9 9 9 9 9 9 9 10 10 10 10 10 10 10 11 11 11 11 11 11 11 11 11 11 12 12 12 11 10 10 11
1 1 1 1 1 2 2 2 3 3 3 4 4 4 4 4 4 4 4 4 4 5 5 6 6 7 7 8 8 8 9 10 9 9 9 9 9 9 9 9 10 10 10 10 10 10 10 10 11 11 11 11 12 12 12 12 12 12 12 11 10 10 10
1 1 1 1 1 1 1 2 2 2 3 3 3 3 4 4 4 4 4 4 4 4 4 5 6 6 7 7 7 8 8 9 10 9 9 9 9 9 9 9 10 10 10 10 10 10 10 10 11 11 11 11 12 12 12 12 12 12 12 12 11 11 10
1 1 1 1 1 1 1 1 2 2 2 3 3 3 3 3 4 4 4 4 4 3 4 4 5 5 6 7 7 7 8 8 9 10 9 9 9 9 9 9 9 10 10 10 11 11 11 11 11 11 11 11 12 12 12 12 12 12 12 12 12 11 11

ECMWFFLT1_700_temp_075.txt.gz
Temp
11 11 11 11 11 11 11 11 11 11 11 11 11 11 11 11 11 11 11 11 11 11 11 11 11 11 11 11 11 11 10 10 10 10 10 10 10 10 10 10 10 10 10 10 10 10 10 10 10 10 10 10 10 10 10 10 10 10 10 10 10 10 10
10 10 11 11 11 11 11 11 11 11 11 11 11 11 11 11 11 11 11 11 10 10 10 11 11 11 11 11 11 11 11 10 10 10 10 10 10 10 10 10 10 10 10 10 10 10 10 10 10 10 10 10 10 10 10 10 10 10 10 10 10 10 10
9 10 11 11 11 11 11 11 11 11 10 11 11 11 11 11 10 11 11 11 10 10 10 10 10 11 11 11 11 11 11 11 11 10 10 10 10 10 10 10 10 10 10 10 10 10 10 10 10 10 10 10 10 10 10 10 10 10 10 10 10 10 10
10 9 9 10 11 11 11 11 11 10 10 10 11 11 10 10 10 10 11 11 10 10 10 10 10 10 11 11 11 11 11 11 11 11 10 10 10 10 10 10 10 10 10 10 10 10 10 10 10 10 11 11 11 10 10 10 10 11 11 10 10 10 10
11 10 9 10 10 10 10 10 10 10 10 11 11 10 10 10 10 10 10 10 10 10 10 10 10 10 10 10 11 11 11 11 11 11 11 11 10 10 10 10 10 10 10 10 10 10 10 10 10 10 11 11 11 11 11 10 10 11 11 11 10 10 10
12 11 11 10 10 11 11 10 10 11 11 11 11 11 10 10 10 10 10 10 10 10 10 10 10 10 10 11 11 11 11 11 11 11 11 11 11 11 11 10 10 10 10 10 10 10 10 10 10 10 10 11 11 11 11 10 11 10 10 11 11 10 10
12 12 11 10 10 10 11 11 11 12 11 11 11 11 11 10 10 10 10 10 10 10 10 10 10 10 11 11 11 11 11 11 11 11 11 11 11 11 11 11 11 11 11 11 10 10 10 10 10 10 10 10 10 11 11 10 10 10 10 11 11 11 10
13 12 12 11 10 11 11 11 12 12 12 11 11 12 11 11 11 11 10 10 10 9 10 10 10 10 10 10 11 11 11 11 11 11 11 11 11 11 11 11 11 11 11 11 11 11 10 10 10 11 11 11 10 10 10 10 10 10 10 11 11 11 11
13 13 13 12 12 12 12 12 12 11 12 12 12 12 11 11 11 10 10 9 9 9 10 10 10 10 10 10 10 11 11 11 11 11 11 11 11 11 11 11 11 11 11 11 11 11 11 11 11 11 11 11 11 11 10 10 11 10 11 11 11 11 11
12 12 13 13 13 13 12 12 11 10 11 11 11 11 11 11 11 10 10 10 10 10 10 10 11 10 10 10 10 11 11 11 11 11 11 11 11 11 11 11 11 11 11 11 11 11 11 11 11 11 11 11 11 11 11 11 11 11 11 11 11 11 11
12 12 12 12 12 12 12 11 11 10 10 10 10 10 10 11 10 10 10 10 10 10 10 10 11 11 10 10 11 11 11 11 11 11 11 11 11 11 11 11 11 11 11 11 11 11 11 11 11 11 11 11 11 11 11 11 11 11 11 11 10 11 11
12 12 12 12 12 12 11 11 11 10 10 10 10 10 10 10 10 10 9 10 10 10 10 10 10 11 11 11 11 11 11 11 11 11 11 11 11 11 11 11 11 11 11 11 11 11 11 11 11 11 11 11 11 11 11 11 11 11 11 11 11 11 10
11 12 12 12 12 11 10 11 11 10 10 10 10 10 10 10 10 10 10 10 10 10 11 11 11 10 11 11 11 11 11 11 11 11 11 11 11 11 11 11 11 11 11 11 11 11 11 11 11 11 11 11 11 11 11 11 11 11 11 11 11 11 11
10 11 11 12 12 11 11 10 10 10 10 10 10 10 10 10 10 10 10 10 10 10 11 11 11 11 11 11 11 11 11 11 11 11 11 11 11 11 11 11 11 11 11 11 11 11 11 11 11 11 11 11 11 11 11 11 11 11 11 11 11 11 11
9 10 10 11 11 11 11 11 10 10 10 10 10 10 10 10 10 10 10 10 10 10 10 11 11 11 11 11 11 11 11 11 11 11 11 10 11 11 11 11 11 11 11 11 11 11 11 11 11 11 11 11 11 11 11 11 11 11 11 11 11 11 11
9 9 9 10 10 10 11 11 11 11 10 10 10 10 10 10 10 10 10 10 10 10 10 10 11 11 11 11 11 11 11 11 11 11 10 10 11 11 11 11 11 11 11 11 11 11 11 11 11 11 11 11 11 11 11 11 11 11 11 11 11 11 11
8 8 8 8 9 9 10 10 10 10 10 10 10 10 10 10 10 10 10 10 10 10 10 10 10 10 11 11 11 11 11 11 11 11 11 11 11 11 11 11 11 11 11 11 11 11 11 11 11 11 11 11 11 11 11 11 11 11 11 11 11 11 11
7 8 8 8 8 9 9 9 9 9 9 10 10 10 10 10 10 10 10 10 10 10 10 10 10 10 11 10 10 10 11 11 11 11 11 11 11 11 11 10 11 11 11 11 11 11 11 11 11 11 11 11 11 11 11 11 11 11 12 11 11 11 11
7 7 7 8 8 8 8 9 9 9 9 9 9 9 10 10 10 10 10 10 10 10 10 10 10 10 10 10 10 10 10 10 11 10 10 10 11 11 11 10 10 10 10 11 11 11 11 11 11 11 11 11 11 11 11 11 11 11 11 12 11 11 11
7 7 7 8 8 8 8 8 8 9 9 9 9 9 9 9 9 10 10 10 10 10 10 10 10 10 10 10 10 10 10 10 10 10 10 10 10 10 10 10 10 10 10 10 10 11 11 11 11 11 11 11 11 11 11 11 11 11 11 11 11 11 11
6 7 7 7 7 8 8 8 8 8 8 8 9 9 9 9 9 9 10 10 10 10 10 10 10 10 10 10 10 10 10 10 10 10 10 10 10 10 10 10 10 10 10 9 9 9 10 11 11 11 11 11 11 11 11 11 11 11 11 12 11 11 11
6 6 7 7 7 7 8 8 8 8 8 8 8 9 9 9 9 9 9 9 9 10 10 10 10 10 10 10 10 10 10 10 10 10 10 9 10 10 10 10 10 10 10 10 9 9 9 9 10 10 11 11 11 11 11 12 12 11 12 12 12 11 11
6 6 7 7 7 7 8 8 8 8 8 8 8 8 8 9 9 9 9 9 9 9 9 10 10 10 10 9 9 10 10 10 10 10 10 9 9 10 10 10 10 10 10 10 10 10 10 10 10 11 12 12 12 12 12 12 12 12 12 12 12 12 11
6 7 7 7 7 8 8 8 8 8 8 8 8 8 8 8 8 9 9 9 9 9 9 9 10 10 10 9 10 10 10 10 10 9 10 10 10 10 10 10 10 10 10 10 10 11 11 11 11 11 12 12 12 12 12 12 12 12 12 12 12 12 12
6 7 7 7 7 8 8 8 8 8 8 8 9 8 8 8 8 9 9 9 9 9 9 9 9 9 9 9 9 10 10 10 9 9 9 9 9 10 10 10 10 10 10 10 10 11 11 11 11 11 11 11 11 12 12 12 12 12 12 12 12 12 12
6 6 6 7 7 8 8 8 8 8 8 8 9 8 8 9 9 9 9 9 9 9 9 9 9 9 9 9 9 9 9 9 9 9 9 9 10 10 10 10 10 10 10 10 11 11 11 11 11 11 11 11 11 11 12 12 12 12 12 12 12 12 12
6 6 6 6 6 7 7 7 8 8 8 8 9 8 8 9 9 9 9 9 9 9 9 9 9 9 9 9 9 9 9 9 9 9 9 9 9 10 10 10 10 10 10 10 10 11 11 11 12 12 12 12 12 12 12 12 12 12 12 12 12 12 12
5 6 6 6 6 6 6 7 7 7 7 8 8 8 8 9 9 9 9 9 9 9 9 9 9 9 9 9 9 9 9 9 9 9 9 9 9 9 10 10 10 10 10 10 10 10 11 11 12 12 12 12 12 12 12 12 12 12 12 12 12 12 12
4 5 5 6 6 6 6 7 7 7 7 7 7 8 8 8 9 9 9 9 9 9 9 9 9 9 9 9 9 9 9 9 9 8 8 8 8 9 9 10 10 10 10 10 10 10 11 11 11 12 12 12 12 12 12 12 12 12 12 12 12 12 12
4 4 4 5 5 6 6 6 6 6 6 6 7 7 7 8 8 8 9 9 9 9 9 9 9 9 9 9 9 8 8 8 9 9 9 8 8 9 9 9 10 10 10 10 10 11 11 11 11 12 12 12 12 12 12 12 11 11 11 12 12 12 12
3 3 3 4 4 5 5 5 6 6 6 6 6 6 7 7 8 8 8 8 8 9 9 9 9 9 9 9 9 9 8 8 8 8 8 8 8 9 9 9 9 9 10 10 10 11 11 11 11 11 12 12 12 11 10 10 10 10 10 11 12 12 12
3 3 3 3 3 4 4 4 5 5 5 5 5 5 6 6 7 7 8 8 8 8 8 9 9 9 9 9 9 9 9 9 8 8 8 8 9 9 9 9 9 9 9 10 10 10 11 11 11 11 11 11 11 10 10 9 10 10 10 11 11 12 12
3 3 3 3 3 3 3 4 4 4 4 5 5 5 5 6 6 6 7 7 7 8 8 8 9 9 9 9 9 9 9 9 9 9 8 8 8 8 9 9 9 9 9 9 10 10 10 11 11 11 11 11 11 10 10 10 11 11 11 11 11 11 12
3 3 3 3 3 3 4 4 4 4 4 4 4 4 5 5 5 6 6 6 7 7 7 8 8 8 9 9 9 9 9 9 9 9 9 9 8 8 8 9 9 9 9 9 10 10 10 10 11 11 11 11 11 11 11 11 12 12 12 11 11 11 11
3 3 3 3 3 4 4 4 4 4 4 4 4 4 4 4 5 5 5 5 6 6 7 7 7 8 8 8 8 9 9 9 9 9 9 9 9 9 9 9 9 9 9 9 10 10 10 10 10 10 10 10 11 11 11 11 12 12 12 12 12 12 11
3 3 3 3 3 3 4 4 4 4 4 4 4 4 4 4 4 4 4 5 5 5 6 6 7 7 8 8 8 8 8 8 9 9 9 9 9 9 9 9 9 9 9 10 10 10 10 10 10 10 10 11 11 11 11 11 11 11 12 12 12 11 11
2 2 2 3 3 3 3 3 3 4 4 4 4 4 4 4 4 4 4 4 4 4 5 5 6 7 7 7 7 8 8 8 8 8 9 9 9 9 10 9 9 9 9 9 10 10 10 10 10 10 10 11 11 11 11 11 11 11 11 11 11 11 11
2 2 2 2 2 3 3 3 3 3 3 3 4 4 4 4 3 3 3 3 3 4 4 5 5 6 6 7 7 7 7 8 8 8 8 9 9 9 9 10 10 9 9 9 9 10 10 10 10 10 11 11 11 11 11 11 11 11 11 11 10 10 11